Location: Birkenwerder
(52.6919°N, 13.2774°E)
Time: 04:17:19
(UTC+00:00)

CZ-4 R/B - Pass Details

Date: 07 June 2020
Orbit: 681 x 753 km, 98.5° (Epoch: 04 July)

Event Time Altitude Azimuth Distance (km) Brightness Sun altitude
Rises 00:14:23 0° 12° (NNE) 3,112 9.2 -13.1°
Reaches altitude 10° 00:16:42 10° 7° (N) 2,178 7.8 -13.0°
Maximum altitude 00:21:18 50° 293° (WNW) 879 4.3 -12.8°
Enters shadow 00:24:50 16° 222° (SW) 1,762 5.3 -12.6°
